Time,TemperatureF,DewpointF,PressureIn,WindDirection,WindDirectionDegrees,WindSpeedMPH,WindSpeedGustMPH,Humidity,HourlyPrecipIn,Conditions,Clouds,dailyrainin,SoftwareType,DateUTC
2014-07-31 00:13:00,69.0,64.0,29.97,North,0,0.0,3.0,84,0.00,,,0.00,,2014-07-31 04:13:00,
2014-07-31 00:44:00,69.0,65.0,29.97,WSW,249,2.0,4.0,87,0.00,,,0.00,,2014-07-31 04:44:00,
2014-07-31 03:12:00,64.0,64.0,29.97,SSW,204,2.0,5.0,99,0.00,,,0.00,,2014-07-31 07:12:00,
2014-07-31 03:43:00,64.0,64.0,29.97,WSW,248,2.0,3.0,99,0.00,,,0.00,,2014-07-31 07:43:00,
2014-07-31 03:52:00,64.0,64.0,29.97,SSW,207,2.0,4.0,99,0.00,,,0.00,,2014-07-31 07:52:00,
2014-07-31 04:13:00,64.0,64.0,29.97,North,0,0.0,3.0,99,0.00,,,0.00,,2014-07-31 08:13:00,
2014-07-31 04:22:00,64.0,64.0,29.96,SSW,198,2.0,3.0,99,0.00,,,0.00,,2014-07-31 08:22:00,
2014-07-31 05:47:00,63.0,63.0,29.97,SW,233,2.0,3.0,99,0.00,,,0.00,,2014-07-31 09:47:00,
2014-07-31 06:20:00,62.0,62.0,29.98,North,0,0.0,2.0,99,0.00,,,0.00,,2014-07-31 10:20:00,
2014-07-31 06:45:00,62.0,62.0,29.98,SW,235,2.0,2.0,99,0.00,,,0.00,,2014-07-31 10:45:00,
2014-07-31 07:15:00,62.0,62.0,29.99,SW,224,2.0,3.0,99,0.00,,,0.00,,2014-07-31 11:15:00,
2014-07-31 08:13:00,66.0,65.0,29.99,WSW,245,2.0,4.0,97,0.00,,,0.00,,2014-07-31 12:13:00,
2014-07-31 09:12:00,71.0,67.0,29.99,SSW,207,2.0,5.0,86,0.01,,,0.01,,2014-07-31 13:12:00,
2014-07-31 10:42:00,78.0,67.0,30.01,SW,227,3.0,8.0,69,0.00,,,0.01,,2014-07-31 14:42:00,
2014-07-31 12:11:00,-999.0,-99.9,30.01,West,274,3.0,8.0,55,0.00,,,0.01,,2014-07-31 16:11:00,
2014-07-31 12:20:00,83.0,65.0,30.01,West,274,3.0,8.0,55,0.00,,,0.01,,2014-07-31 16:20:00,
2014-07-31 13:41:00,-999.0,-99.9,30.00,WSW,249,4.0,10.0,54,0.00,,,0.02,,2014-07-31 17:41:00,
2014-07-31 13:51:00,81.0,63.0,30.00,WSW,249,4.0,10.0,54,0.00,,,0.02,,2014-07-31 17:51:00,
2014-07-31 15:13:00,84.0,65.0,30.00,WNW,283,1.0,9.0,53,0.00,,,0.07,,2014-07-31 19:13:00,
2014-07-31 16:42:00,84.0,65.0,29.98,WNW,283,1.0,9.0,53,0.00,,,0.07,,2014-07-31 20:42:00,
2014-07-31 17:44:00,85.0,62.0,29.97,SW,227,2.0,5.0,46,0.00,,,0.00,,2014-07-31 21:44:00,
2014-07-31 18:43:00,86.0,65.0,29.97,West,264,2.0,10.0,49,0.05,,,0.04,,2014-07-31 22:43:00,
2014-07-31 19:13:00,83.0,64.0,29.97,WSW,241,2.0,8.0,52,0.00,,,0.04,,2014-07-31 23:13:00,
2014-07-31 19:43:00,79.0,65.0,29.97,WSW,238,2.0,4.0,62,0.00,,,0.04,,2014-07-31 23:43:00,
2014-07-31 20:42:00,77.0,66.0,29.98,North,0,0.0,3.0,68,0.02,,,0.06,,2014-08-01 00:42:00,
2014-07-31 21:12:00,74.0,64.0,29.98,North,0,0.0,0.0,71,0.02,,,0.06,,2014-08-01 01:12:00,
2014-07-31 21:42:00,72.0,65.0,29.97,North,0,0.0,1.0,78,0.00,,,0.06,,2014-08-01 01:42:00,
2014-07-31 22:12:00,70.0,65.0,29.98,North,0,0.0,0.0,84,0.00,,,0.06,,2014-08-01 02:12:00,